Home   Weather   Campbell River   Past weeks
Flag for Canada

Past Weather in Campbell River, British Columbia, Canada — Yesterday and Last 2 Weeks

Now
52 °F

Light rain. Overcast.


Feels Like: 45 °F
Forecast: 54 / 48 °F
Wind: 25 mph from Southeast

Location: Comox

Current Time: Oct 17, 2019 at 4:45:58 am

Latest Report: Oct 17, 2019 at 4:00 am


Visibility: 5 mi

Pressure: 29.49 "Hg

Humidity: 88%

Dew Point: 48 °F

Location of Campbell RiverLocation

Past Weather in Campbell River — Graph

°F

Campbell River Temperature Yesterday

Maximum temperature yesterday: 54 °F (at 10:00 am)
Minimum temperature yesterday: 50 °F (at 7:00 am)
Average temperature yesterday: 52 °F

High & Low Weather Summary for the Past Weeks

 TemperatureHumidityPressure
High59 °F (Oct 5, 3:00 pm)100% (Oct 3, 4:00 am)30.50 "Hg (Oct 3, 4:00 am)
Low34 °F (Oct 10, 1:00 am)35% (Oct 9, 3:00 pm)29.51 "Hg (Oct 17, 3:00 am)
Average49 °F81%30.06 "Hg
* Reported Oct 2 3:00 am — Oct 17 3:00 am, Campbell River. Weather by CustomWeather, © 2019

Note: Actual official high and low records may vary slightly from our data, if they occured in-between our weather recording intervals... More about our weather records

Advertising

Campbell River Weather History for the Previous 24 Hours

Scroll right to see more
 ConditionsComfort  
Time TempWeatherWind HumidityBarometerVisibility
3:00 am
Thu, Oct 17
52 °FLight rain. Overcast.24 mph88%29.51 "Hg6 mi
2:00 am52 °FSprinkles. Overcast.23 mph88%29.52 "Hg10 mi
1:00 am52 °FSprinkles. Overcast.24 mph88%29.53 "Hg6 mi
12:00 am52 °FPartly cloudy.17 mph77%29.53 "Hg20 mi
11:00 pm
Wed, Oct 16
52 °FPartly cloudy.12 mph77%29.54 "Hg20 mi
10:17 pm52 °FSprinkles. Partly cloudy.18 mph77%29.53 "Hg20 mi
10:00 pm52 °FPartly cloudy.14 mph77%29.54 "Hg20 mi
9:21 pm50 °FPassing clouds.No wind88%29.54 "Hg20 mi
9:00 pm50 °FSprinkles. Passing clouds.No wind88%29.53 "Hg15 mi
8:49 pm52 °FSprinkles. Passing clouds.5 mph82%29.53 "Hg20 mi
8:00 pm50 °FScattered showers. Mostly cloudy.6 mph94%29.52 "Hg20 mi
7:00 pm52 °FOvercast.7 mph88%29.52 "Hg20 mi
6:00 pm52 °FPartly sunny.10 mph88%29.53 "Hg20 mi
5:00 pm54 °FSprinkles. Cloudy.15 mph77%29.53 "Hg15 mi
4:33 pm52 °FSprinkles. Cloudy.7 mph94%29.54 "Hg20 mi
4:00 pm54 °FBroken clouds.12 mph77%29.54 "Hg20 mi
3:00 pm54 °FMostly cloudy.12 mph88%29.53 "Hg10 mi
2:18 pm52 °FMore clouds than sun.17 mph94%29.53 "Hg8 mi
1:17 pm52 °FLots of rain. Fog.16 mph94%29.57 "Hg2 mi
1:00 pm52 °FRain showers. Fog.22 mph94%29.57 "Hg2 mi
12:29 pm52 °FSprinkles. Fog.22 mph94%29.54 "Hg3 mi
12:00 pm52 °FRain showers. Fog.25 mph94%29.55 "Hg3 mi
11:46 am52 °FSprinkles. Fog.24 mph94%29.55 "Hg3 mi
11:00 am54 °FSprinkles. Mostly cloudy.25 mph82%29.55 "Hg10 mi
10:00 am54 °FBroken clouds.29 mph82%29.56 "Hg8 mi
9:00 am52 °FPartly sunny.31 mph88%29.58 "Hg8 mi
8:36 am52 °FPartly sunny.28 mph88%29.59 "Hg8 mi
8:00 am52 °FLight rain. Fog.31 mph88%29.61 "Hg3 mi
7:00 am50 °FLight rain. Fog.28 mph94%29.64 "Hg6 mi
6:00 am52 °FLight rain. Fog.29 mph88%29.65 "Hg4 mi
5:00 am52 °FLight rain. Fog.28 mph88%29.67 "Hg4 mi
4:00 am52 °FLight rain. Fog.24 mph88%29.69 "Hg3 mi
Weather by CustomWeather, © 2019

See weather overview